Back to Top

Language: 

My Weather Underground Personal Weather Station Historical Data with Graphs...

Delerius Weather Station Historical Data
Daily Summary for September 28, 2017 Units:  Metric    English   Both
« Previous Day
Next Day »
Daily Weekly Monthly Yearly Custom
  High: Low: Average:
Temperature: 19.8 °C 12.6 °C 15.5 °C
Dew Point: 14.4 °C 10.3 °C 12.5 °C
Humidity: 98 % 61 % 83 %
Wind Speed: 14.5 km/h 0 km/h 4.5 km/h
Wind Gust: 25.7 km/h - -
Wind:- - SSW
Pressure: 1017.2 hPa 1013.8 hPa -
Precipitation: 1.52 mm    
Historical Graphs
 
 
Tabular Data for September 28, 2017
Time Temperature Dew Point Pressure Wind Wind Speed Wind Gust Humidity Rainfall Rate (Hourly) solar Conditions
00:01 13.6 °C 12.8 °C 1014.8 hPa SE 14.5 km/h 25.7 km/h 95 % 1.52 mm 0 W/m2
00:06 13.6 °C 12.8 °C 1014.8 hPa SE 14.5 km/h 25.7 km/h 95 % 1.27 mm 0 W/m2
00:11 13.6 °C 12.8 °C 1014.8 hPa SE 12.9 km/h 22.5 km/h 95 % 1.27 mm 0 W/m2
00:16 13.6 °C 12.8 °C 1014.4 hPa SE 12.9 km/h 20.9 km/h 95 % 1.27 mm 0 W/m2
00:21 13.6 °C 13 °C 1014.4 hPa SE 11.3 km/h 20.9 km/h 96 % 1.02 mm 0 W/m2
00:31 13.6 °C 13 °C 1014.4 hPa SE 11.3 km/h 17.7 km/h 96 % 1.02 mm 0 W/m2
00:36 13.6 °C 13 °C 1014.4 hPa SE 12.9 km/h 20.9 km/h 96 % 0.76 mm 0 W/m2
00:41 13.6 °C 13 °C 1014.4 hPa SE 14.5 km/h 20.9 km/h 96 % 0.51 mm 0 W/m2
00:47 13.6 °C 13 °C 1014.4 hPa SE 14.5 km/h 19.3 km/h 96 % 0.51 mm 0 W/m2
00:52 13.6 °C 13 °C 1014.1 hPa SE 12.9 km/h 22.5 km/h 96 % 0.25 mm 0 W/m2
00:57 13.6 °C 13 °C 1014.1 hPa SE 12.9 km/h 22.5 km/h 96 % 0.51 mm 0 W/m2
01:02 13.6 °C 13 °C 1014.1 hPa SE 12.9 km/h 20.9 km/h 96 % 0.51 mm 0 W/m2
01:07 13.5 °C 12.9 °C 1014.1 hPa SE 12.9 km/h 22.5 km/h 96 % 0.51 mm 0 W/m2
01:11 13.6 °C 13 °C 1014.1 hPa SE 12.9 km/h 22.5 km/h 96 % 0.51 mm 0 W/m2
01:16 13.6 °C 13 °C 1014.1 hPa SE 11.3 km/h 19.3 km/h 96 % 0.51 mm 0 W/m2
01:21 13.6 °C 13 °C 1014.1 hPa SE 11.3 km/h 19.3 km/h 96 % 0.51 mm 0 W/m2
01:27 13.6 °C 13 °C 1014.1 hPa SE 9.7 km/h 17.7 km/h 96 % 0.51 mm 0 W/m2
01:32 13.6 °C 13 °C 1014.1 hPa SE 9.7 km/h 17.7 km/h 96 % 0.51 mm 0 W/m2
01:36 13.6 °C 13 °C 1014.1 hPa SE 9.7 km/h 16.1 km/h 96 % 0.51 mm 0 W/m2
01:42 13.6 °C 13 °C 1014.1 hPa SE 8 km/h 14.5 km/h 96 % 0.51 mm 0 W/m2
01:47 13.6 °C 13.1 °C 1014.1 hPa SE 8 km/h 14.5 km/h 97 % 0.76 mm 0 W/m2
01:52 13.6 °C 13.1 °C 1014.1 hPa SE 8 km/h 14.5 km/h 97 % 0.51 mm 0 W/m2
01:57 13.6 °C 13.1 °C 1014.1 hPa SE 8 km/h 14.5 km/h 97 % 0.51 mm 0 W/m2
02:02 13.6 °C 13.1 °C 1014.1 hPa SE 8 km/h 14.5 km/h 97 % 0.51 mm 0 W/m2
02:07 13.6 °C 13.1 °C 1014.1 hPa SE 6.4 km/h 14.5 km/h 97 % 0.76 mm 0 W/m2
02:12 13.6 °C 13.1 °C 1014.1 hPa SE 6.4 km/h 12.9 km/h 97 % 0.76 mm 0 W/m2
02:17 13.6 °C 13.1 °C 1014.1 hPa SE 6.4 km/h 12.9 km/h 97 % 0.76 mm 0 W/m2
02:22 13.6 °C 13.1 °C 1014.1 hPa SE 6.4 km/h 12.9 km/h 97 % 0.76 mm 0 W/m2
02:27 13.6 °C 13.1 °C 1014.1 hPa SE 6.4 km/h 12.9 km/h 97 % 0.51 mm 0 W/m2
02:32 13.6 °C 13.1 °C 1014.1 hPa SE 4.8 km/h 12.9 km/h 97 % 0.76 mm 0 W/m2
02:37 13.6 °C 13.1 °C 1014.1 hPa SE 6.4 km/h 12.9 km/h 97 % 0.51 mm 0 W/m2
02:42 13.6 °C 13.1 °C 1014.1 hPa SE 6.4 km/h 12.9 km/h 97 % 0.51 mm 0 W/m2
02:47 13.6 °C 13.1 °C 1014.1 hPa SE 4.8 km/h 11.3 km/h 97 % 0.51 mm 0 W/m2
02:52 13.6 °C 13.1 °C 1014.1 hPa SSE 3.2 km/h 9.7 km/h 97 % 0.51 mm 0 W/m2
02:57 13.6 °C 13.1 °C 1014.1 hPa SE 3.2 km/h 9.7 km/h 97 % 0.51 mm 0 W/m2
03:02 13.7 °C 13.2 °C 1013.8 hPa ESE 3.2 km/h 9.7 km/h 97 % 0.51 mm 0 W/m2
03:07 13.6 °C 13.1 °C 1014.1 hPa ESE 3.2 km/h 9.7 km/h 97 % 0.25 mm 0 W/m2
03:12 13.7 °C 13.2 °C 1014.1 hPa SE 4.8 km/h 9.7 km/h 97 % 0.25 mm 0 W/m2
03:17 13.7 °C 13.2 °C 1014.1 hPa SSE 3.2 km/h 9.7 km/h 97 % 0.25 mm 0 W/m2
03:22 13.7 °C 13.2 °C 1014.1 hPa SSE 1.6 km/h 8 km/h 97 % 0.25 mm 0 W/m2
03:27 13.7 °C 13.2 °C 1014.1 hPa Calm   8 km/h 97 % 0.25 mm 0 W/m2
03:32 13.7 °C 13.2 °C 1014.1 hPa SSE 3.2 km/h 9.7 km/h 97 % 0 mm 0 W/m2
03:37 13.7 °C 13.2 °C 1014.1 hPa SSE 6.4 km/h 11.3 km/h 97 % 0 mm 0 W/m2
03:42 13.7 °C 13.2 °C 1014.1 hPa SSE 6.4 km/h 11.3 km/h 97 % 0 mm 0 W/m2
03:47 13.7 °C 13.2 °C 1013.8 hPa SSE 4.8 km/h 9.7 km/h 97 % 0 mm 0 W/m2
03:52 13.8 °C 13.3 °C 1013.8 hPa SSE 4.8 km/h 9.7 km/h 97 % 0 mm 0 W/m2
03:57 13.7 °C 13.2 °C 1014.1 hPa SSE 4.8 km/h 9.7 km/h 97 % 0 mm 0 W/m2
04:02 13.8 °C 13.3 °C 1014.1 hPa SSE 4.8 km/h 9.7 km/h 97 % 0 mm 0 W/m2
04:07 13.8 °C 13.3 °C 1014.1 hPa SSE 3.2 km/h 9.7 km/h 97 % 0 mm 0 W/m2
04:12 13.8 °C 13.3 °C 1014.1 hPa South 3.2 km/h 9.7 km/h 97 % 0 mm 0 W/m2
04:17 13.8 °C 13.3 °C 1013.8 hPa South 3.2 km/h 8 km/h 97 % 0 mm 0 W/m2
04:22 13.8 °C 13.3 °C 1013.8 hPa SSW 1.6 km/h 8 km/h 97 % 0 mm 0 W/m2
04:27 13.8 °C 13.3 °C 1013.8 hPa SSW 1.6 km/h 6.4 km/h 97 % 0 mm 0 W/m2
04:32 13.8 °C 13.3 °C 1014.1 hPa SSW 1.6 km/h 6.4 km/h 97 % 0 mm 0 W/m2
04:37 13.8 °C 13.3 °C 1014.1 hPa Calm   6.4 km/h 97 % 0 mm 0 W/m2
04:42 13.8 °C 13.3 °C 1014.1 hPa Calm   1.6 km/h 97 % 0 mm 0 W/m2
04:47 13.7 °C 13.2 °C 1014.1 hPa Calm     97 % 0 mm 0 W/m2
04:52 13.7 °C 13.2 °C 1014.1 hPa Calm     97 % 0 mm 0 W/m2
04:57 13.7 °C 13.2 °C 1013.8 hPa Calm     97 % 0 mm 0 W/m2
05:02 13.7 °C 13.2 °C 1013.8 hPa Calm     97 % 0 mm 0 W/m2
05:03 13.7 °C 13.2 °C 1013.8 hPa Calm     97 % 0 mm 0 W/m2
05:08 13.7 °C 13.2 °C 1013.8 hPa Calm     97 % 0 mm 0 W/m2
05:13 13.7 °C 13.2 °C 1014.1 hPa Calm     97 % 0 mm 0 W/m2
05:18 13.7 °C 13.2 °C 1014.1 hPa Calm   1.6 km/h 97 % 0 mm 0 W/m2
05:23 13.7 °C 13.2 °C 1014.1 hPa Calm   3.2 km/h 97 % 0 mm 0 W/m2
05:28 13.7 °C 13.2 °C 1014.1 hPa Calm   3.2 km/h 97 % 0 mm 0 W/m2
05:33 13.7 °C 13.2 °C 1014.1 hPa Calm   3.2 km/h 97 % 0 mm 0 W/m2
05:38 13.7 °C 13.2 °C 1014.1 hPa Calm   3.2 km/h 97 % 0 mm 0 W/m2
05:43 13.7 °C 13.2 °C 1014.1 hPa Calm   1.6 km/h 97 % 0 mm 0 W/m2
05:48 13.7 °C 13.2 °C 1014.4 hPa Calm   1.6 km/h 97 % 0 mm 0 W/m2
05:53 13.7 °C 13.2 °C 1014.4 hPa Calm   1.6 km/h 97 % 0 mm 0 W/m2
05:58 13.7 °C 13.2 °C 1014.4 hPa Calm     97 % 0 mm 0 W/m2
06:03 13.6 °C 13.1 °C 1014.4 hPa Calm     97 % 0 mm 0 W/m2
06:08 13.6 °C 13.1 °C 1014.4 hPa Calm     97 % 0 mm 0 W/m2
06:13 13.6 °C 13.1 °C 1014.8 hPa Calm     97 % 0 mm 0 W/m2
06:18 13.6 °C 13.1 °C 1014.8 hPa Calm     97 % 0 mm 0 W/m2
06:23 13.6 °C 13.1 °C 1014.8 hPa Calm     97 % 0 mm 0 W/m2
06:28 13.6 °C 13.1 °C 1014.8 hPa Calm     97 % 0 mm 0 W/m2
06:33 13.6 °C 13.1 °C 1014.8 hPa Calm   1.6 km/h 97 % 0 mm 0 W/m2
06:38 13.6 °C 13.1 °C 1014.8 hPa Calm   3.2 km/h 97 % 0 mm 0 W/m2
06:43 13.6 °C 13.1 °C 1015.1 hPa Calm   3.2 km/h 97 % 0 mm 0 W/m2
06:48 13.6 °C 13.1 °C 1015.1 hPa Calm     97 % 0 mm 0 W/m2
06:53 13.7 °C 13.2 °C 1015.1 hPa Calm   6.4 km/h 97 % 0 mm 0 W/m2
06:58 13.7 °C 13.4 °C 1015.5 hPa WSW 1.6 km/h 8 km/h 98 % 0 mm 0 W/m2
07:03 13.7 °C 13.4 °C 1015.5 hPa West 3.2 km/h 11.3 km/h 98 % 0 mm 0 W/m2
07:08 13.7 °C 13.2 °C 1015.5 hPa West 3.2 km/h 11.3 km/h 97 % 0 mm 0 W/m2
07:13 13.6 °C 13.1 °C 1015.5 hPa West 1.6 km/h 8 km/h 97 % 0 mm 5 W/m2
07:18 13.6 °C 13.1 °C 1015.5 hPa WNW 1.6 km/h 11.3 km/h 97 % 0 mm 11 W/m2
07:23 13.6 °C 13.1 °C 1015.5 hPa WNW 1.6 km/h 11.3 km/h 97 % 0 mm 12 W/m2
07:28 13.5 °C 13.1 °C 1015.5 hPa WNW 1.6 km/h 8 km/h 97 % 0 mm 18 W/m2
07:33 13.4 °C 12.9 °C 1015.8 hPa Calm   6.4 km/h 97 % 0 mm 23 W/m2
07:38 13.4 °C 12.9 °C 1015.8 hPa Calm   8 km/h 97 % 0 mm 26 W/m2
07:43 13.3 °C 12.8 °C 1015.8 hPa NW 3.2 km/h 12.9 km/h 97 % 0 mm 30 W/m2
07:48 13.2 °C 12.7 °C 1015.8 hPa NW 4.8 km/h 12.9 km/h 97 % 0 mm 30 W/m2
07:53 13 °C 12.6 °C 1016.1 hPa WNW 4.8 km/h 12.9 km/h 97 % 0 mm 37 W/m2
07:58 12.8 °C 12.3 °C 1016.1 hPa WNW 6.4 km/h 14.5 km/h 97 % 0 mm 35 W/m2
08:03 12.7 °C 12.2 °C 1016.1 hPa WNW 4.8 km/h 14.5 km/h 97 % 0 mm 39 W/m2
08:08 12.7 °C 12.2 °C 1016.1 hPa WNW 1.6 km/h 8 km/h 97 % 0 mm 40 W/m2
08:13 12.6 °C 12.1 °C 1016.1 hPa Calm   6.4 km/h 97 % 0 mm 46 W/m2
08:18 12.7 °C 12.2 °C 1016.1 hPa Calm   1.6 km/h 97 % 0 mm 176 W/m2
08:23 13 °C 12.7 °C 1016.1 hPa Calm     98 % 0 mm 179 W/m2
08:28 13.3 °C 13 °C 1016.1 hPa Calm     98 % 0 mm 178 W/m2
08:34 13.4 °C 13.1 °C 1016.5 hPa Calm     98 % 0 mm 67 W/m2
08:39 13.4 °C 12.9 °C 1016.5 hPa Calm     97 % 0 mm 132 W/m2
08:43 13.4 °C 12.9 °C 1016.5 hPa Calm   8 km/h 97 % 0 mm 234 W/m2
08:48 13.6 °C 13.1 °C 1016.5 hPa Calm   8 km/h 97 % 0 mm 243 W/m2
08:50 13.7 °C 13.4 °C 1016.5 hPa WNW 1.6 km/h 9.7 km/h 98 % 0 mm 244 W/m2
08:55 13.8 °C 13.3 °C 1016.5 hPa WNW 3.2 km/h 9.7 km/h 97 % 0 mm 258 W/m2
09:00 14.1 °C 13.6 °C 1016.5 hPa NW 3.2 km/h 9.7 km/h 97 % 0 mm 269 W/m2
09:05 14.3 °C 13.8 °C 1016.5 hPa NW 3.2 km/h 11.3 km/h 97 % 0 mm 281 W/m2
09:10 14.4 °C 13.9 °C 1016.5 hPa NW 3.2 km/h 11.3 km/h 97 % 0 mm 294 W/m2
09:15 14.7 °C 14.2 °C 1016.5 hPa WNW 1.6 km/h 6.4 km/h 97 % 0 mm 306 W/m2
09:20 15 °C 14.4 °C 1016.5 hPa NW 3.2 km/h 9.7 km/h 96 % 0 mm 315 W/m2
09:25 15.1 °C 14.2 °C 1016.5 hPa NW 4.8 km/h 11.3 km/h 94 % 0 mm 325 W/m2
09:30 15.1 °C 14 °C 1016.5 hPa NW 4.8 km/h 11.3 km/h 93 % 0 mm 338 W/m2
09:35 15.3 °C 14 °C 1016.5 hPa NW 3.2 km/h 11.3 km/h 92 % 0 mm 352 W/m2
09:40 15.5 °C 14.1 °C 1016.8 hPa NW 1.6 km/h 9.7 km/h 91 % 0 mm 357 W/m2
09:45 15.7 °C 13.9 °C 1016.5 hPa WNW 3.2 km/h 9.7 km/h 89 % 0 mm 373 W/m2
09:50 15.7 °C 13.6 °C 1016.5 hPa West 4.8 km/h 11.3 km/h 87 % 0 mm 383 W/m2
09:55 15.8 °C 13.7 °C 1016.5 hPa West 3.2 km/h 11.3 km/h 87 % 0 mm 390 W/m2
10:01 16 °C 13.5 °C 1016.8 hPa WNW 4.8 km/h 11.3 km/h 85 % 0 mm 403 W/m2
10:06 16.2 °C 13.5 °C 1016.8 hPa WNW 6.4 km/h 12.9 km/h 84 % 0 mm 415 W/m2
10:11 16.3 °C 13.2 °C 1016.8 hPa NW 4.8 km/h 12.9 km/h 82 % 0 mm 424 W/m2
10:16 16.6 °C 13.3 °C 1016.8 hPa WNW 3.2 km/h 12.9 km/h 81 % 0 mm 432 W/m2
10:21 16.7 °C 13.2 °C 1016.8 hPa WNW 1.6 km/h 9.7 km/h 80 % 0 mm 443 W/m2
10:26 16.8 °C 13.3 °C 1016.8 hPa WNW 1.6 km/h 8 km/h 80 % 0 mm 457 W/m2
10:31 17.1 °C 13.6 °C 1016.8 hPa WNW 3.2 km/h 9.7 km/h 80 % 0 mm 469 W/m2
10:36 17.3 °C 13.4 °C 1017.2 hPa WNW 4.8 km/h 11.3 km/h 78 % 0 mm 485 W/m2
10:41 17.4 °C 13.3 °C 1016.8 hPa West 4.8 km/h 11.3 km/h 77 % 0 mm 506 W/m2
10:46 17.6 °C 13.7 °C 1016.8 hPa West 4.8 km/h 11.3 km/h 78 % 0 mm 550 W/m2
10:50 17.8 °C 13.5 °C 1017.2 hPa WSW 4.8 km/h 11.3 km/h 76 % 0 mm 640 W/m2
10:55 17.7 °C 13.4 °C 1017.2 hPa WSW 4.8 km/h 9.7 km/h 76 % 0 mm 292 W/m2
11:01 17.8 °C 13.5 °C 1016.8 hPa West 4.8 km/h 11.3 km/h 76 % 0 mm 216 W/m2
11:05 17.8 °C 13.3 °C 1016.8 hPa WNW 6.4 km/h 11.3 km/h 75 % 0 mm 186 W/m2
11:10 17.7 °C 13.2 °C 1016.8 hPa WNW 4.8 km/h 11.3 km/h 75 % 0 mm 729 W/m2
11:15 17.8 °C 13.3 °C 1016.8 hPa WNW 4.8 km/h 12.9 km/h 75 % 0 mm 705 W/m2
11:20 18.1 °C 13.6 °C 1016.8 hPa WNW 6.4 km/h 12.9 km/h 75 % 0 mm 606 W/m2
11:25 18.3 °C 13.2 °C 1016.8 hPa NW 8 km/h 16.1 km/h 72 % 0 mm 719 W/m2
11:31 18.6 °C 13.4 °C 1016.8 hPa NW 11.3 km/h 16.1 km/h 72 % 0 mm 747 W/m2
11:36 18.7 °C 13.3 °C 1016.8 hPa NW 9.7 km/h 16.1 km/h 71 % 0 mm 698 W/m2
11:41 18.7 °C 13.1 °C 1016.8 hPa NW 9.7 km/h 14.5 km/h 70 % 0 mm 185 W/m2
11:46 18.6 °C 13.2 °C 1016.8 hPa NW 8 km/h 14.5 km/h 71 % 0 mm 373 W/m2
11:51 18.6 °C 13.2 °C 1016.8 hPa NW 6.4 km/h 14.5 km/h 71 % 0 mm 708 W/m2
11:56 18.6 °C 13.2 °C 1016.5 hPa NW 6.4 km/h 16.1 km/h 71 % 0 mm 717 W/m2
12:01 18.6 °C 13.2 °C 1016.5 hPa NW 8 km/h 16.1 km/h 71 % 0 mm 694 W/m2
12:06 18.6 °C 13.2 °C 1016.8 hPa NW 6.4 km/h 12.9 km/h 71 % 0 mm 163 W/m2
12:11 18.4 °C 12.6 °C 1016.8 hPa WNW 6.4 km/h 16.1 km/h 69 % 0 mm 214 W/m2
12:16 18.3 °C 12.9 °C 1016.5 hPa WNW 4.8 km/h 16.1 km/h 71 % 0 mm 239 W/m2
12:21 18.2 °C 12.8 °C 1016.8 hPa NW 3.2 km/h 9.7 km/h 71 % 0 mm 141 W/m2
12:26 18.2 °C 12.8 °C 1016.8 hPa NW 3.2 km/h 11.3 km/h 71 % 0 mm 162 W/m2
12:31 18.2 °C 13.1 °C 1016.8 hPa NW 4.8 km/h 12.9 km/h 72 % 0 mm 209 W/m2
12:36 18.3 °C 12.9 °C 1016.8 hPa WNW 6.4 km/h 12.9 km/h 71 % 0 mm 230 W/m2
12:41 18.3 °C 13.2 °C 1016.8 hPa WNW 6.4 km/h 12.9 km/h 72 % 0 mm 766 W/m2
12:46 18.5 °C 12.9 °C 1016.8 hPa WNW 3.2 km/h 9.7 km/h 70 % 0 mm 689 W/m2
12:51 18.7 °C 12.9 °C 1016.8 hPa WNW 1.6 km/h 8 km/h 69 % 0 mm 229 W/m2
12:56 18.6 °C 12.8 °C 1016.8 hPa WSW 1.6 km/h 8 km/h 69 % 0 mm 190 W/m2
13:01 18.4 °C 12.8 °C 1016.8 hPa SW 1.6 km/h 8 km/h 70 % 0 mm 171 W/m2
13:06 18.3 °C 12.5 °C 1016.8 hPa SSW 3.2 km/h 11.3 km/h 69 % 0 mm 181 W/m2
13:11 18.1 °C 12.6 °C 1017.2 hPa SSW 3.2 km/h 11.3 km/h 70 % 0 mm 197 W/m2
13:16 18 °C 12.7 °C 1016.8 hPa South 1.6 km/h 8 km/h 71 % 0 mm 200 W/m2
13:21 18 °C 12.9 °C 1016.8 hPa Calm   6.4 km/h 72 % 0 mm 234 W/m2
13:26 18 °C 12.4 °C 1016.8 hPa South 1.6 km/h 6.4 km/h 70 % 0 mm 186 W/m2
13:31 18.1 °C 12.6 °C 1016.8 hPa South 1.6 km/h 8 km/h 70 % 0 mm 162 W/m2
13:36 18 °C 12.4 °C 1016.8 hPa SSE 1.6 km/h 8 km/h 70 % 0 mm 118 W/m2
13:41 18.1 °C 12.8 °C 1016.8 hPa SSE 1.6 km/h 4.8 km/h 71 % 0 mm 118 W/m2
13:46 18 °C 12.7 °C 1016.8 hPa South 1.6 km/h 6.4 km/h 71 % 0 mm 214 W/m2
13:51 18.1 °C 12.9 °C 1016.8 hPa SW 1.6 km/h 6.4 km/h 72 % 0 mm 188 W/m2
13:56 18.2 °C 13.1 °C 1016.8 hPa WSW 1.6 km/h 6.4 km/h 72 % 0 mm 213 W/m2
14:01 18.3 °C 13.2 °C 1016.8 hPa West 1.6 km/h 11.3 km/h 72 % 0 mm 237 W/m2
14:06 18.3 °C 12.7 °C 1016.8 hPa WNW 3.2 km/h 11.3 km/h 70 % 0 mm 218 W/m2
14:11 18.5 °C 12.9 °C 1016.8 hPa WNW 1.6 km/h 9.7 km/h 70 % 0 mm 696 W/m2
14:17 18.7 °C 12.7 °C 1016.5 hPa NNE 1.6 km/h 8 km/h 68 % 0 mm 714 W/m2
14:22 18.9 °C 12.9 °C 1016.5 hPa NE 1.6 km/h 8 km/h 68 % 0 mm 352 W/m2
14:27 19 °C 12.7 °C 1016.8 hPa South 1.6 km/h 14.5 km/h 67 % 0 mm 179 W/m2
14:32 18.9 °C 12.4 °C 1016.8 hPa WSW 4.8 km/h 16.1 km/h 66 % 0 mm 162 W/m2
14:37 18.8 °C 12.3 °C 1016.5 hPa WSW 4.8 km/h 16.1 km/h 66 % 0 mm 195 W/m2
14:42 18.8 °C 12.6 °C 1016.5 hPa WSW 3.2 km/h 8 km/h 67 % 0 mm 708 W/m2
14:47 19.1 °C 12.8 °C 1016.8 hPa WSW 4.8 km/h 11.3 km/h 67 % 0 mm 659 W/m2
14:52 19.3 °C 13 °C 1016.5 hPa WSW 4.8 km/h 11.3 km/h 67 % 0 mm 645 W/m2
14:57 19.6 °C 12.8 °C 1016.5 hPa WSW 6.4 km/h 14.5 km/h 65 % 0 mm 153 W/m2
15:02 19.5 °C 12.5 °C 1016.5 hPa WSW 8 km/h 14.5 km/h 64 % 0 mm 142 W/m2
15:07 19.2 °C 12.4 °C 1016.5 hPa SW 4.8 km/h 11.3 km/h 65 % 0 mm 163 W/m2
15:12 19.2 °C 12.2 °C 1016.5 hPa SSW 3.2 km/h 9.7 km/h 64 % 0 mm 608 W/m2
15:17 19.4 °C 12.4 °C 1016.5 hPa SSW 3.2 km/h 8 km/h 64 % 0 mm 571 W/m2
15:22 19.7 °C 12.4 °C 1016.5 hPa South 3.2 km/h 14.5 km/h 63 % 0 mm 512 W/m2
15:27 19.8 °C 12.1 °C 1016.5 hPa SSW 6.4 km/h 16.1 km/h 61 % 0 mm 468 W/m2
15:32 19.7 °C 11.9 °C 1016.5 hPa SSW 9.7 km/h 16.1 km/h 61 % 0 mm 100 W/m2
15:37 19.7 °C 12.2 °C 1016.5 hPa SSW 6.4 km/h 12.9 km/h 62 % 0 mm 432 W/m2
15:42 19.8 °C 12.3 °C 1016.5 hPa SSW 4.8 km/h 12.9 km/h 62 % 0 mm 436 W/m2
15:47 19.7 °C 11.9 °C 1016.5 hPa SSW 8 km/h 14.5 km/h 61 % 0 mm 399 W/m2
15:52 19.7 °C 11.9 °C 1016.5 hPa SSW 8 km/h 14.5 km/h 61 % 0 mm 406 W/m2
15:57 19.7 °C 12.2 °C 1016.1 hPa SSW 6.4 km/h 12.9 km/h 62 % 0 mm 374 W/m2
16:02 19.6 °C 12.1 °C 1016.1 hPa SW 6.4 km/h 12.9 km/h 62 % 0 mm 339 W/m2
16:07 19.6 °C 12.1 °C 1016.1 hPa SSW 6.4 km/h 12.9 km/h 62 % 0 mm 350 W/m2
16:12 19.3 °C 11.8 °C 1016.1 hPa SSW 6.4 km/h 11.3 km/h 62 % 0 mm 200 W/m2
16:17 19.1 °C 11.7 °C 1016.1 hPa SSW 6.4 km/h 12.9 km/h 62 % 0 mm 186 W/m2
16:22 19 °C 12.1 °C 1016.1 hPa SSW 6.4 km/h 12.9 km/h 64 % 0 mm 264 W/m2
16:27 19 °C 12.1 °C 1016.1 hPa South 8 km/h 14.5 km/h 64 % 0 mm 244 W/m2
16:32 19 °C 11.8 °C 1016.1 hPa SSW 9.7 km/h 16.1 km/h 63 % 0 mm 353 W/m2
16:37 19.2 °C 12 °C 1016.1 hPa SSW 11.3 km/h 16.1 km/h 63 % 0 mm 345 W/m2
16:42 19.2 °C 12 °C 1016.1 hPa SSW 11.3 km/h 17.7 km/h 63 % 0 mm 283 W/m2
16:48 19.2 °C 12 °C 1016.1 hPa SSW 9.7 km/h 17.7 km/h 63 % 0 mm 292 W/m2
16:53 19.2 °C 11.7 °C 1016.1 hPa SSW 9.7 km/h 17.7 km/h 62 % 0 mm 258 W/m2
16:58 19.1 °C 11.7 °C 1016.1 hPa SW 11.3 km/h 20.9 km/h 62 % 0 mm 193 W/m2
17:03 18.9 °C 11.7 °C 1016.1 hPa SW 12.9 km/h 20.9 km/h 63 % 0 mm 204 W/m2
17:08 18.8 °C 11.8 °C 1016.1 hPa SSW 9.7 km/h 17.7 km/h 64 % 0 mm 151 W/m2
17:13 18.7 °C 12 °C 1016.1 hPa SSW 9.7 km/h 20.9 km/h 65 % 0 mm 141 W/m2
17:18 18.6 °C 11.9 °C 1016.1 hPa SSW 11.3 km/h 20.9 km/h 65 % 0 mm 155 W/m2
17:23 18.4 °C 11.9 °C 1016.1 hPa SW 11.3 km/h 20.9 km/h 66 % 0 mm 86 W/m2
17:28 18.2 °C 11.7 °C 1016.1 hPa SW 9.7 km/h 17.7 km/h 66 % 0 mm 81 W/m2
17:33 18 °C 11.8 °C 1016.1 hPa SSW 9.7 km/h 14.5 km/h 67 % 0 mm 74 W/m2
17:38 17.9 °C 11.7 °C 1016.1 hPa SSW 9.7 km/h 14.5 km/h 67 % 0 mm 76 W/m2
17:43 17.8 °C 11.8 °C 1016.5 hPa SSW 8 km/h 14.5 km/h 68 % 0 mm 65 W/m2
17:48 17.7 °C 11.7 °C 1016.5 hPa SSW 8 km/h 14.5 km/h 68 % 0 mm 76 W/m2
17:53 17.6 °C 11.8 °C 1016.5 hPa SSW 6.4 km/h 14.5 km/h 69 % 0 mm 74 W/m2
17:58 17.4 °C 11.7 °C 1016.5 hPa SSW 6.4 km/h 11.3 km/h 69 % 0 mm 65 W/m2
18:03 17.4 °C 11.7 °C 1016.5 hPa SSW 6.4 km/h 11.3 km/h 69 % 0 mm 53 W/m2
18:08 17.3 °C 11.8 °C 1016.5 hPa SSW 4.8 km/h 9.7 km/h 70 % 0 mm 39 W/m2
18:13 17.2 °C 11.9 °C 1016.5 hPa SSW 3.2 km/h 8 km/h 71 % 0 mm 30 W/m2
18:18 17.1 °C 11.6 °C 1016.5 hPa SSW 3.2 km/h 11.3 km/h 70 % 0 mm 23 W/m2
18:23 17.1 °C 11.8 °C 1016.5 hPa South 3.2 km/h 11.3 km/h 71 % 0 mm 14 W/m2
18:28 16.9 °C 11.6 °C 1016.5 hPa South 1.6 km/h 8 km/h 71 % 0 mm 11 W/m2
18:34 16.9 °C 11.6 °C 1016.5 hPa South 3.2 km/h 8 km/h 71 % 0 mm 7 W/m2
18:39 16.8 °C 11.7 °C 1016.5 hPa South 3.2 km/h 8 km/h 72 % 0 mm 7 W/m2
18:44 16.7 °C 11.6 °C 1016.5 hPa South 3.2 km/h 9.7 km/h 72 % 0 mm 5 W/m2
18:49 16.6 °C 11.6 °C 1016.5 hPa South 3.2 km/h 9.7 km/h 72 % 0 mm 0 W/m2
18:54 16.5 °C 11.8 °C 1016.5 hPa South 3.2 km/h 8 km/h 74 % 0 mm 0 W/m2
18:59 16.3 °C 11.7 °C 1016.8 hPa South 1.6 km/h 6.4 km/h 74 % 0 mm 0 W/m2
19:04 16.2 °C 11.8 °C 1016.5 hPa Calm   6.4 km/h 75 % 0 mm 0 W/m2
19:09 16.1 °C 11.9 °C 1016.5 hPa Calm   4.8 km/h 76 % 0 mm 0 W/m2
19:14 16 °C 11.9 °C 1016.5 hPa Calm     77 % 0 mm 0 W/m2
19:19 15.9 °C 12.1 °C 1016.5 hPa Calm     78 % 0 mm 0 W/m2
19:24 15.7 °C 12.1 °C 1016.5 hPa Calm   1.6 km/h 79 % 0 mm 0 W/m2
19:29 15.6 °C 11.9 °C 1016.8 hPa South 1.6 km/h 8 km/h 79 % 0 mm 0 W/m2
19:34 15.4 °C 11.9 °C 1016.8 hPa SSE 3.2 km/h 9.7 km/h 80 % 0 mm 0 W/m2
19:39 15.4 °C 11.9 °C 1016.8 hPa SSE 3.2 km/h 9.7 km/h 80 % 0 mm 0 W/m2
19:44 15.4 °C 11.9 °C 1016.5 hPa SE 1.6 km/h 6.4 km/h 80 % 0 mm 0 W/m2
19:49 15.4 °C 12.2 °C 1016.8 hPa SE 1.6 km/h 4.8 km/h 81 % 0 mm 0 W/m2
19:54 15.3 °C 12.1 °C 1016.8 hPa SE 1.6 km/h 6.4 km/h 81 % 0 mm 0 W/m2
19:59 15.2 °C 11.9 °C 1016.8 hPa SE 1.6 km/h 6.4 km/h 81 % 0 mm 0 W/m2
20:00 15.2 °C 11.9 °C 1016.8 hPa SE 1.6 km/h 6.4 km/h 81 % 0 mm 0 W/m2
20:05 15 °C 11.8 °C 1016.5 hPa SE 1.6 km/h 4.8 km/h 81 % 0 mm 0 W/m2
20:10 14.9 °C 11.8 °C 1016.5 hPa SE 1.6 km/h 4.8 km/h 82 % 0 mm 0 W/m2
20:15 14.9 °C 11.8 °C 1016.5 hPa SE 1.6 km/h 4.8 km/h 82 % 0 mm 0 W/m2
20:20 14.8 °C 11.8 °C 1016.5 hPa SE 1.6 km/h 8 km/h 82 % 0 mm 0 W/m2
20:25 14.8 °C 11.8 °C 1016.5 hPa SE 3.2 km/h 8 km/h 82 % 0 mm 0 W/m2
20:30 14.8 °C 11.8 °C 1016.5 hPa SE 3.2 km/h 8 km/h 82 % 0 mm 0 W/m2
20:35 14.7 °C 11.8 °C 1016.5 hPa SE 3.2 km/h 8 km/h 83 % 0 mm 0 W/m2
20:40 14.6 °C 11.7 °C 1016.5 hPa SE 3.2 km/h 11.3 km/h 83 % 0 mm 0 W/m2
20:45 14.6 °C 11.7 °C 1016.5 hPa SE 3.2 km/h 11.3 km/h 83 % 0 mm 0 W/m2
20:50 14.6 °C 11.7 °C 1016.5 hPa SE 4.8 km/h 9.7 km/h 83 % 0 mm 0 W/m2
20:55 14.5 °C 11.7 °C 1016.1 hPa SE 6.4 km/h 11.3 km/h 83 % 0 mm 0 W/m2
21:00 14.4 °C 11.6 °C 1016.1 hPa SSE 8 km/h 16.1 km/h 83 % 0 mm 0 W/m2
21:05 14.4 °C 11.4 °C 1016.1 hPa SSE 8 km/h 16.1 km/h 82 % 0 mm 0 W/m2
21:10 14.4 °C 11.4 °C 1016.1 hPa SSE 8 km/h 12.9 km/h 82 % 0 mm 0 W/m2
21:15 14.3 °C 11.3 °C 1016.1 hPa SSE 9.7 km/h 12.9 km/h 82 % 0 mm 0 W/m2
21:20 14.3 °C 11.3 °C 1016.1 hPa SSE 9.7 km/h 12.9 km/h 82 % 0 mm 0 W/m2
21:25 14.2 °C 11.2 °C 1016.1 hPa SSE 6.4 km/h 12.9 km/h 82 % 0 mm 0 W/m2
21:30 14.2 °C 11.2 °C 1016.1 hPa SSE 4.8 km/h 11.3 km/h 82 % 0 mm 0 W/m2
21:35 14.1 °C 11.1 °C 1016.1 hPa South 4.8 km/h 11.3 km/h 82 % 0 mm 0 W/m2
21:40 14 °C 11 °C 1016.1 hPa South 1.6 km/h 8 km/h 82 % 0 mm 0 W/m2
21:45 13.9 °C 11.1 °C 1016.1 hPa South 1.6 km/h 8 km/h 83 % 0 mm 0 W/m2
21:50 13.8 °C 10.9 °C 1016.1 hPa South 3.2 km/h 8 km/h 83 % 0 mm 0 W/m2
21:55 13.7 °C 10.9 °C 1016.1 hPa SSE 4.8 km/h 8 km/h 83 % 0 mm 0 W/m2
22:00 13.6 °C 10.8 °C 1016.1 hPa SSE 6.4 km/h 9.7 km/h 83 % 0 mm 0 W/m2
22:05 13.5 °C 10.7 °C 1015.8 hPa SSE 6.4 km/h 12.9 km/h 83 % 0 mm 0 W/m2
22:10 13.4 °C 10.6 °C 1016.1 hPa SE 6.4 km/h 12.9 km/h 83 % 0 mm 0 W/m2
22:15 13.4 °C 10.6 °C 1015.8 hPa SE 6.4 km/h 11.3 km/h 83 % 0 mm 0 W/m2
22:20 13.4 °C 10.4 °C 1015.8 hPa SE 6.4 km/h 11.3 km/h 82 % 0 mm 0 W/m2
22:25 13.5 °C 10.5 °C 1016.1 hPa SE 4.8 km/h 9.7 km/h 82 % 0 mm 0 W/m2
22:30 13.5 °C 10.5 °C 1016.1 hPa SE 3.2 km/h 8 km/h 82 % 0 mm 0 W/m2
22:35 13.4 °C 10.6 °C 1015.8 hPa Calm   6.4 km/h 83 % 0 mm 0 W/m2
22:40 13.3 °C 10.5 °C 1015.8 hPa Calm   6.4 km/h 83 % 0 mm 0 W/m2
22:45 13.2 °C 10.6 °C 1015.8 hPa SE 3.2 km/h 9.7 km/h 84 % 0 mm 0 W/m2
22:50 13 °C 10.6 °C 1015.8 hPa SSE 4.8 km/h 11.3 km/h 85 % 0 mm 0 W/m2
22:55 13 °C 10.6 °C 1015.8 hPa SSE 6.4 km/h 17.7 km/h 85 % 0 mm 0 W/m2
23:00 13 °C 10.6 °C 1015.8 hPa SSE 8 km/h 17.7 km/h 85 % 0 mm 0 W/m2
23:05 12.9 °C 10.4 °C 1015.8 hPa SE 8 km/h 14.5 km/h 85 % 0 mm 0 W/m2
23:10 12.9 °C 10.4 °C 1015.8 hPa SE 6.4 km/h 14.5 km/h 85 % 0 mm 0 W/m2
23:15 12.9 °C 10.4 °C 1015.8 hPa SE 4.8 km/h 11.3 km/h 85 % 0 mm 0 W/m2
23:20 12.8 °C 10.3 °C 1015.5 hPa SSE 3.2 km/h 8 km/h 85 % 0 mm 0 W/m2
23:25 12.8 °C 10.3 °C 1015.5 hPa South 1.6 km/h 9.7 km/h 85 % 0 mm 0 W/m2
23:31 12.8 °C 10.5 °C 1015.5 hPa SW 3.2 km/h 9.7 km/h 86 % 0 mm 0 W/m2
23:36 12.8 °C 10.5 °C 1015.5 hPa SW 3.2 km/h 9.7 km/h 86 % 0 mm 0 W/m2
23:41 12.8 °C 10.5 °C 1015.5 hPa SW 3.2 km/h 8 km/h 86 % 0 mm 0 W/m2
23:46 12.8 °C 10.5 °C 1015.5 hPa SSW 3.2 km/h 9.7 km/h 86 % 0 mm 0 W/m2
23:51 12.9 °C 10.6 °C 1015.5 hPa South 4.8 km/h 12.9 km/h 86 % 0 mm 0 W/m2
23:56 12.9 °C 10.6 °C 1015.5 hPa SSE 4.8 km/h 12.9 km/h 86 % 0 mm 0 W/m2
Delerius-Weather
Compliments of Weather Underground - 2.25 mb

Data updates at regular intervals.